星链-4251 (STARLINK-4251 )

导读

STARLINK-4251是美国SpaceX公司星链(Starlink)星座中的一颗卫星,于2022年7月11日发射。星链星座旨在为全球提供宽带互联网服务,该卫星采用平板设计,搭载Ku/Ka波段通信载荷,配备氪工质霍尔推进器,具备自主避撞能力,设计寿命5-7年,退役后会坠入大气层烧毁。

基本信息
目录编号:
53083
目录名称:
STARLINK-4251
国际标识:
2022-077AS
轨道中心:
EARTH
卫星名称:
星链-4251
卫星全名:
星链-4251 (STARLINK-4251 )
卫星状态:
在轨 (已飞行1517 天)
发射日期:
2022-07-11 UTC
国别 :
美国 (US)
星等 :
--
轨道信息
数据来源 国际轨道数据
星历时间: 2026-09-05T16:00:02+0800
5小时前
查看轨道信息
半长轴: 6868.299km
偏心率: 0.0002509
轨道倾角: 97.283°
近地点辐角 85.677°
升交点赤经 64.235°
平近点角 159.498°
近地点: 488.438km
远地点: 491.886km
周期: 94.413分钟
每日圈数: 15.252077
详细信息
固有亮度:
5
最大亮度:
2.5
卫星平台:
Starlink v1.5
覆盖范围:
全球
运营商:
太空探索技术公司
运营商所在国:
美国
制造商(研发单位):
太空探索技术公司
制造商所在国:
美国
使用方式:
暂无
卫星简介
星链(Starlink)计划是由太空探索技术公司(SpaceX)提出的一个巨型低轨卫星互联网星座项目,计划在2019年至2024年间在太空搭建由约1.2万颗卫星组成的“星链”网络,其中1584颗将部署在地球上空550千米处的近地轨道,并从2020年开始工作。该卫星仍在工作。
2D轨道图
3D轨道图
轨道高度分析图
轨道倾角分析图
轨道综合分析图
查看轨道综合分析图
交会数据列表
事件ID 空间交会对象 最接近时刻(TCA) 交会距离 交会风险概率(CRP) 交会风险指数(CRI) 操作
CDM_260906-085705-308306-094821
2026-09-06T
08:57:47+0000
0.730 km
远距离
5.013607E-5 中风险 0.69
CDM_260907-204705-308306-768021
2026-09-07T
20:47:48+0000
1.099 km
极远距离
1.803261E-5 中风险 0.6
CDM_260905-213502-873705-308321
SJ-7 (28737)
2026-09-05T
21:35:15+0000
1.664 km
极远距离
4.722758E-6 低风险 0.48
CDM_260901-091803-944405-308321
2026-09-01T
09:18:03+0000
2.920 km
极远距离
1.383215E-6 低风险 0.38
CDM_260906-012405-308306-901821
2026-09-06T
01:24:04+0000
2.840 km
极远距离
1.130896E-6 低风险 0.36